Regional Weather Roundup
Issued by NWS

Home | Current Version | Previous Version | Graphics & Text | Print | Product List | Glossary Off
Versions: 1 2 3 4 5 6 7 8 9 10 11 12 13 14 15 16 17 18 19 20 21 22 23 24 25 26 27 28 29 30 31 32 33 34 35 36 37 38 39 40 41 42 43 44 45 46 47 48 49 50

000
ASUS43 KMKX 242311
RWRWI

WISCONSIN REGIONAL WEATHER ROUNDUP
NATIONAL WEATHER SERVICE MILWAUKEE/SULLIVAN WI
600 PM CDT MON JUL 24 2017

NOTE: "FAIR" INDICATES FEW OR NO CLOUDS BELOW 12,000 FEET WITH NO
SIGNIFICANT WEATHER AND/OR OBSTRUCTIONS TO VISIBILITY.

WIZ001-002-006>008-014>016-023>028-250000-
NORTHWEST WISCONSIN

CITY           SKY/WX    TMP DP  RH WIND       PRES   REMARKS
SUPERIOR ARPT  NOT AVBL
ASHLAND        FAIR      73  58  59 NE8       30.05S
HAYWARD        FAIR      76  55  48 S9        30.06S
SIREN          FAIR      75  56  50 SE7       30.05R
CUMBERLAND     FAIR      72  52  49 SE8       30.07S
RICE LAKE      FAIR      76  53  45 SE8       30.08R
CHETEK         FAIR      75  57  53 S7        30.07S
LADYSMITH      FAIR      76  56  49 S6        30.08S
EAU CLAIRE     FAIR      76  56  49 S10G16    30.05S
MENOMONIE      FAIR      76  59  56 SE9       30.06S
NEW RICHMOND   FAIR      75  58  55 S8        30.05S
OSCEOLA        FAIR      76  58  54 S8        30.06S
$$

WIZ003>005-009-010-017-018-250000-
NORTH CENTRAL WISCONSIN

CITY           SKY/WX    TMP DP  RH WIND       PRES   REMARKS
MANITOWISH WTR FAIR      75  53  45 S6        30.07F
ARBOR VITAE    FAIR      77  53  43 SW3       30.08S
WOODRUFF       FAIR      77  53  43 SW3       30.08S
RHINELANDER    FAIR      77  53  43 S8        30.09F
EAGLE RIVER    FAIR      75  47  37 CALM      30.08F
LAND O LAKES   FAIR      77  46  33 SW8       30.09F
PHILLIPS       FAIR      75  56  51 S7        30.07S
TOMAHAWK         N/A     74  53  47 CALM      30.09S
MEDFORD        FAIR      72  55  54 S9        30.09R
MERRILL        FAIR      76  55  47 SE7       30.08F
$$

WIZ029-030-035-036-043>047-250000-
CENTRAL WISCONSIN

CITY           SKY/WX    TMP DP  RH WIND       PRES   REMARKS
WAUSAU         FAIR      76  53  44 S10       30.07S
MOSINEE        MOSUNNY   73  54  49 SE5       30.10S
MARSHFIELD     FAIR      75  55  49 S8        30.08R
STEVENS POINT  FAIR      73  53  49 SE7       30.09S
WAUPACA        FAIR      78  49  36 SE3       30.09F
WAUTOMA        FAIR      74  56  53 SE5       30.09S
WISC RAPIDS    FAIR      77  55  46 VRB7      30.09S
CAMP DOUGLAS   MOSUNNY   73  57  56 S3        30.07S
$$

WIZ011>013-019>022-031-037>040-048>050-250000-
NORTHEAST WISCONSIN

CITY           SKY/WX    TMP DP  RH WIND       PRES   REMARKS
ANTIGO         FAIR      73  54  51 SE6       30.10S
SHAWANO        FAIR      76  53  45 SE3       30.09S
OCONTO         FAIR      73  51  47 S3        30.09S
STURGEON BAY   NOT AVBL
GREEN BAY      FAIR      74  59  59 VRB3      30.09R
MANITOWOC      FAIR      70  41  34 N8        30.10R
APPLETON       MOSUNNY   73  52  46 CALM      30.08R
CLINTONVILLE   FAIR     N/A N/A N/A E5        30.09S
OSHKOSH        FAIR      74  52  46 CALM      30.09R
$$

WIZ032>034-041-042-053>061-250000-
SOUTHWEST WISCONSIN

CITY           SKY/WX    TMP DP  RH WIND       PRES   REMARKS
LA CROSSE      FAIR      77  60  55 S7        30.06R
SPARTA         FAIR      74  58  58 SE8       30.07S
VIROQUA        FAIR      73  60  65 CALM      30.09R
BOSCOBEL       FAIR      74  59  59 VRB3      30.07S
PRAIRIE DU CHI PTSUNNY   74  58  57 E6        30.06R
PLATTEVILLE    FAIR      74  63  68 E9        30.08S
$$

WIZ056-057-062-063-064-067-068-250000-
SOUTH CENTRAL WISCONSIN

CITY           SKY/WX    TMP DP  RH WIND       PRES   REMARKS
REEDSBURG      FAIR      73  58  59 S6        30.08R
BARABOO/DELLS  FAIR      76  54  47 SE6       30.09R
LONE ROCK      FAIR      74  60  61 E6        30.07S
MINERAL POINT  FAIR      73  61  64 E5        30.09S
MADISON        PTSUNNY   75  57  53 SE6       30.07R
MIDDLETON      FAIR      76  57  50 E6        30.08S
WATERTOWN      FAIR      73  56  55 E3        30.08R
MONROE         FAIR      73  55  53 NE3       30.08S
JANESVILLE     MOSUNNY   75  55  50 E9        30.08R
$$

WIZ051-052-058>065-066-070>072-250000-
SOUTHEAST WISCONSIN

CITY           SKY/WX    TMP DP  RH WIND       PRES   REMARKS
MILWAUKEE      FAIR      69  56  62 NE13      30.09R
WAUKESHA       SUNNY     70  48  46 E8        30.10R
MILWAUKEE/TIMM SUNNY     72  43  35 NE9       30.10R
RACINE         FAIR      69  59  70 N13       30.11R
KENOSHA        FAIR      71  59  65 NE8       30.09R
FOND DU LAC    FAIR      75  50  41 NE7       30.09R
SHEBOYGAN      FAIR      71  53  52 NE7       30.10R
WEST BEND      FAIR      70  48  46 NE7       30.09S
JUNEAU         FAIR      73  54  52 E6        30.10R
$$

LSZ147-162-250000-
LAKE SUPERIOR

STATION/POSITION TIME  TEMP    WIND        PRES    WAVE
                       AIR SEA DIR/SP/G            HT/PER
                 (UTC) (F)     (DEG/KT/KT) (MB)    (FT/S)
W MID LAKE BUOY  2250   58 56   30/  4/  4 1017.8F   0
DEVILS ISLAND    2300   62      90/  7/  8 1017.6F
SAXON HARBOR     2240   67      30/  8/ 10 1017.3F
$$

LMZ867-665-643>646-250000-
LAKE MICHIGAN

STATION/POSITION TIME  TEMP    WIND        PRES    WAVE
                       AIR SEA DIR/SP/G            HT/PER
                 (UTC) (F)     (DEG/KT/KT) (MB)    (FT/S)
CHAMBERS ISLAND  2230   71      60/  3/  5 1017.9S
S GREEN BAY BUOY 2300   71 73  330/  4/  4 1018.8
N MID LAKE BUOY  2250   68 68  210/  2/  4 1019.0R   1
NORTHPORT PIER   2240   70     140/  5/  7 1018.3S
KEWAUNEE LAKESHO 2248   68      90/  3/  5 1018.6R
SHEBOYGAN LAKESH 2300   67      20/ 12/ 13 1018.7R
PORT WASHINGTON  2240   70      40/ 10/ 13 1019.6R
ATWATER BUOY     2209   67 68   20/ 12/ 16 1018.8
MILWAUKEE LAKESH 2250   67      30/ 10/ 12   N/A
S MID LAKE BUOY  2250   67 70  360/ 14/ 16 1018.1R   4/ 6
KENOSHA   LAKESH 2300   66      30/ 14/ 16 1018.3
$$

TC  - TEMPERATURE IN CELSIUS
VSB - VISIBILITY IN STATUTE MILES
WCI - WIND CHILL INDEX
HX  - HEAT INDEX





USA.gov is the U.S. government's official web portal to all federal, state and local government web resources and services.